Flag for Canada Weather past 2 weeks in Newmarket, Ontario, Canada

Now
21 °F

Overcast.


Feels Like: 21 °F
Forecast: 22 / 30 °F
Wind: No wind

Location: Borden

Current Time: Dec 20, 2014 at 8:36:27 PM

Latest Report: Dec 20, 2014 at 8:00 PM


Visibility: 9 mi

Pressure: 30.31 "Hg

Humidity: 100%

Dew point: 21 °F

Location of NewmarketLocation

Historic Weather in Newmarket — Graph

°F

Newmarket temperature yesterday

Maximum temperature yesterday: 27 °F (at 11:00 AM)
Minimum temperature yesterday: 19 °F (at 5:00 AM)
Average temperature yesterday: 23 °F

Past Weeks' High & Low Weather Summary

 TemperatureHumidityPressure
High39 °F (Dec 6, 11:00 AM)100% (Dec 9, 10:00 AM)30.81 "Hg (Dec 9, 10:00 AM)
Low12 °F (Dec 20, 8:00 AM)40% (Dec 7, 1:00 PM)29.71 "Hg (Dec 16, 1:55 PM)
Average30 °F88%30.10 "Hg
* Reported Dec 5 7:00 PM — Dec 20 7:00 PM, Newmarket, Weather by CustomWeather, © 2014

Note: Actual official high and low records may vary slightly from our data, if they occured in-between our weather recording intervals... More about our weather records

Advertising

Newmarket weather history for previous 24 hours

 ConditionsComfort  
Time TempWeatherWind HumidityBarometerVisibility
7:00 PM
Dec 20
19 °FPassing clouds.2 mph100%30.31 "Hg9 mi
6:00 PM23 °FOvercast.2 mph93%30.29 "Hg9 mi
5:00 PM23 °FPassing clouds.2 mph86%30.29 "Hg9 mi
4:00 PM28 °FPassing clouds.2 mph74%30.28 "Hg9 mi
3:00 PM30 °FPassing clouds.3 mph75%30.27 "Hg9 mi
2:00 PM30 °FPassing clouds.3 mph75%30.27 "Hg9 mi
1:00 PM28 °FPassing clouds.6 mph86%30.29 "Hg9 mi
12:00 PM28 °FSunny.7 mph80%30.30 "Hg9 mi
11:00 AM27 °FScattered clouds.No wind74%30.32 "Hg9 mi
10:00 AM21 °FPassing clouds.No wind86%30.33 "Hg9 mi
9:52 AM21 °FPassing clouds.2 mph80%30.28 "Hg9 mi
9:00 AM19 °FOvercast.No wind93%30.33 "Hg9 mi
8:00 AM12 °FPartly sunny.No wind92%30.33 "Hg9 mi
7:00 AM14 °FOvercast.2 mph92%30.33 "Hg9 mi
6:04 AM16 °FPassing clouds.No wind93%30.27 "Hg9 mi
5:00 AM16 °FLow clouds.3 mph93%30.30 "Hg9 mi
4:00 AM14 °FLow clouds.No wind92%30.28 "Hg9 mi
3:00 AM16 °FPassing clouds.No wind93%30.27 "Hg9 mi
2:58 AM16 °FPassing clouds.No wind93%30.23 "Hg9 mi
2:00 AM19 °FLow clouds.2 mph93%30.27 "Hg9 mi
1:00 AM19 °FOvercast.No wind93%30.29 "Hg9 mi
12:00 AM19 °FOvercast.No wind93%30.30 "Hg9 mi
11:00 PM
Dec 19
21 °FOvercast.2 mph86%30.30 "Hg9 mi
10:00 PM21 °FMostly cloudy.2 mph86%30.30 "Hg9 mi
9:00 PM23 °FOvercast.5 mph86%30.29 "Hg9 mi
8:00 PM25 °FOvercast.3 mph86%30.29 "Hg9 mi
Weather by CustomWeather, © 2014

See weather overviewHow to use our weather pages